Home   Weather   Heinsberg   Past weeks

Flag for Germany Past Weather in Heinsberg, North Rhine-Westphalia, Germany — Yesterday and Last 2 Weeks

Now
61 °F

Passing clouds.


Feels Like: 61 °F
Forecast: 54 / 66 °F
Wind: 2 mph from Southwest

Location: Maastricht Airport Zuid Limburg

Current Time: Aug 19, 2017 at 8:57:14 pm

Latest Report: Aug 19, 2017 at 8:00 pm


Visibility: 25 mi

Pressure: 30.10 "Hg

Humidity: 79%

Dew Point: 55 °F

Location of HeinsbergLocation

Past Weather in Heinsberg — Graph

°F

Heinsberg Temperature Yesterday

Maximum temperature yesterday: 67 °F (at 2:00 pm)
Minimum temperature yesterday: 57 °F (at 11:00 pm)
Average temperature yesterday: 63 °F

High & Low Weather Summary for the Past Weeks

 TemperatureHumidityPressure
High77 °F (Aug 14, 7:00 pm)100% (Aug 6, 4:00 am)30.25 "Hg (Aug 6, 4:00 am)
Low49 °F (Aug 6, 6:00 am)43% (Aug 6, 7:00 pm)29.76 "Hg (Aug 8, 2:00 pm)
Average63 °F81%30.04 "Hg
* Reported Aug 4 7:00 pm — Aug 19 7:00 pm, Heinsberg. Weather by CustomWeather, © 2017

Note: Actual official high and low records may vary slightly from our data, if they occured in-between our weather recording intervals... More about our weather records

Advertising

Heinsberg Weather History for the Previous 24 Hours

Scroll right to see more
 ConditionsComfort  
Time TempWeatherWind HumidityBarometerVisibility
7:00 pm
Sat, Aug 19
63 °FPartly sunny.5 mph78%30.10 "Hg19 mi
6:00 pm62 °FOvercast.3 mph81%30.09 "Hg22 mi
5:00 pm62 °FPartly sunny.2 mph87%30.09 "Hg19 mi
4:00 pm56 °FLots of rain. Low clouds.3 mph92%30.09 "Hg5 mi
3:00 pm64 °FOvercast.8 mph67%30.06 "Hg19 mi
2:00 pm65 °FPartly sunny.8 mph64%30.05 "Hg17 mi
1:00 pm64 °FOvercast.7 mph67%30.05 "Hg16 mi
12:00 pm62 °FOvercast.7 mph75%30.04 "Hg19 mi
11:00 am60 °FOvercast.7 mph78%30.03 "Hg14 mi
10:00 am57 °FFog.7 mph88%30.03 "Hg3 mi
9:00 am57 °FOvercast.7 mph82%30.02 "Hg13 mi
8:00 am55 °FOvercast.7 mph84%30.01 "Hg14 mi
7:00 am53 °FPassing clouds.6 mph90%30.00 "Hg12 mi
6:00 am53 °FPassing clouds.5 mph90%29.99 "Hg10 mi
5:00 am53 °FPassing clouds.5 mph93%29.98 "Hg12 mi
4:00 am54 °FPassing clouds.6 mph89%29.99 "Hg13 mi
3:00 am55 °FOvercast.6 mph87%29.99 "Hg15 mi
2:00 am54 °FOvercast.5 mph88%29.98 "Hg16 mi
1:00 am56 °FOvercast.5 mph88%29.97 "Hg19 mi
12:00 am56 °FOvercast.5 mph89%29.97 "Hg19 mi
11:00 pm
Fri, Aug 18
57 °FOvercast.5 mph91%29.96 "Hg17 mi
10:00 pm57 °FOvercast.5 mph91%29.95 "Hg22 mi
9:00 pm58 °FOvercast.3 mph94%29.93 "Hg25 mi
8:00 pm63 °FOvercast.5 mph89%29.88 "Hg28 mi
Weather by CustomWeather, © 2017

See weather overviewHow to use our weather pages